Regional Weather Roundup
Issued by NWS

Home | Current Version | Previous Version | Graphics & Text | Print | Product List | Glossary On
Versions: 1 2 3 4 5 6 7 8 9 10 11 12 13 14 15 16 17 18 19 20 21 22 23 24 25 26 27 28 29 30 31 32 33 34 35 36 37 38 39 40 41 42 43 44 45 46 47 48 49 50
000
ASUS45 KBOU 041307
RWRCO

WEATHER ROUNDUP FOR COLORADO
NATIONAL WEATHER SERVICE DENVER/BOULDER CO
600 AM MST WED MAR 04 2015

NOTE: "FAIR" INDICATES FEW OR NO CLOUDS BELOW 12000 FEET WITH NO
SIGNIFICANT WEATHER AND/OR OBSTRUCTIONS TO VISIBILITY.

COZ001>005-013-030-031-041400-
...NORTHWEST COLORADO...

CITY           SKY/WX    TMP DP  RH WIND       PRES   REMARKS
CRAIG          PTCLDY     2  -2  83 SE5       30.01R WCI  -8
HAYDEN         PTCLDY     7   1  78 CALM      29.97S
MEEKER         MOCLDY     4  -1  80 CALM      29.99R
MOUNT WERNER   NOT AVBL
STEAMBOAT SPGS CLOUDY     9   4  80 E3        29.96R
WALDEN         CLOUDY     1  -4  78 N9        29.88S WCI -14
$$

COZ006>008-011-041400-
...WEST CENTRAL VALLEYS...

CITY           SKY/WX    TMP DP  RH WIND       PRES   REMARKS
GRAND JUNCTION CLOUDY    25  13  60 NE9G21    30.00R WCI  15
MONTROSE       CLOUDY    26  21  81 NW12      29.97R WCI  16
EAGLE          CLOUDY    18  16  93 SE10      29.99S WCI   6
RIFLE          PTCLDY    22  12  65 NW3       30.01R
DELTA          MOCLDY    29  23  78 W8        29.96R WCI  21
NUCLA          CLOUDY    28  23  80 W8        29.98R WCI  20
$$

COZ017>023-064>068-041400-
...SOUTHWEST COLORADO...

CITY           SKY/WX    TMP DP  RH WIND       PRES   REMARKS
DURANGO        PTCLDY    17  15  92 N7        29.89R WCI   8
CORTEZ         CLOUDY    26  20  77 VRB3      29.93R
PAGOSA SPRINGS LGT SNOW  21  21  98 CALM      29.88R
TELLURIDE      LGT SNOW  17  16  94 CALM      29.88R
WOLF CREEK PAS CLOUDY     9   5  85 MISG      29.81S
$$

COZ009-010-012-014-032>034-037-058>063-041400-
...CENTRAL COLORADO...

CITY           SKY/WX    TMP DP  RH WIND       PRES   REMARKS
ASPEN          LGT SNOW  15   9  76 N8        29.90R WCI   4
BUENA VISTA    CLOUDY    18  15  87 E9G17     29.83R WCI   7
COPPER MTN     NOT AVBL
BERTHOUD PASS  CLOUDY    -8 -13  77 NW28G35   29.67F WCI -35
COTTONWOOD PAS CLOUDY    18  12  79 SE6       29.78R WCI   9
GUNNISON       MOCLDY    18  10  73 N7        29.87R WCI   8
KREMMLING      CLOUDY    14   3  62 CALM      29.94R
LEADVILLE      LGT SNOW   5  -1  76 N17       29.79R WCI -14
SALIDA         CLOUDY    20  18  93 SE13G20   29.92R WCI   7
SUNLIGHT         N/A    N/A N/A N/A W3          N/A
WILKERSON PASS LGT SNOW   9   3  78 MISG      29.76R VSB 1
$$

COZ069>075-041400-
...SAN LUIS VALLEY/SANGRE DE CRISTO MOUNTAINS...

CITY           SKY/WX    TMP DP  RH WIND       PRES   REMARKS
ALAMOSA        CLEAR     17  13  84 S7        29.84R WCI   8
LA VETA PASS   MOCLDY    10   9  92 CALM      29.80R FOG
SAGUACHE       PTCLDY    21  12  68 NW6       29.85R WCI  14
$$

COZ035-036-038>040-041400-
...NORTHERN COLORADO FRONT RANGE...

CITY           SKY/WX    TMP DP  RH WIND       PRES   REMARKS
DENVER INTL AP LGT SNOW  11   7  84 NE7       30.08R FOG     WCI   0
DMNS CITY PARK   N/A     11   9  89 N5        30.10R WCI   3
AURORA         FLURRIES   9   7  92 N2        30.07R
FRONT RANGE AP NOT AVBL
ERIE MUNI ARPT LGT SNOW  13  10  90 E3        30.11R
BOULDER MUN AP LGT SNOW  12  10  92 CALM      30.09R
CENTENNIAL     LGT SNOW   9   5  84 E5        30.05R FOG     WCI   1
BROOMFIELD     LGT SNOW   9   9 100 CALM      30.07R
FORT COLLINS   PTCLDY    10   7  85 E6        30.12R WCI   1
LONGMONT       LGT SNOW  14  11  85 SE3       30.13R VSB 3/4
$$

COZ041-046-047-076>085-087-088-041400-
...PIKES PEAK/PALMER DIVIDE AND SOUTHERN FOOTHILLS...

CITY           SKY/WX    TMP DP  RH WIND       PRES   REMARKS
COLO. SPRINGS  LGT SNOW  12   8  84 N8        30.00R FOG     WCI   0
A. F. ACADEMY  LGT SNOW   9   3  77 N16       29.97R WCI  -8
ELLICOTT       NOT AVBL
FALCON         LGT SNOW   7   3  85 N14G20    29.96R WCI -10
FORT CARSON    SNOW      13  10  90 N16       29.99R VSB 1/2 WCI  -4
LIMON          LGT SNOW   9   6  88 N15       30.06R FOG     WCI  -8
MONUMENT HILL  LGT SNOW   5   3  92 N3        29.95R
TRINIDAD       FRZ RAIN  26  22  84 NE15      29.93R FOG     WCI  14
$$

COZ042>045-048>051-090-091-041400-
...NORTHEAST COLORADO...

CITY           SKY/WX    TMP DP  RH WIND       PRES   REMARKS
GREELEY ARPT   PTCLDY    12   3  67 CALM      30.13R
AKRON          LGT SNOW  12   9  87 N7        30.11R FOG     WCI   1
BURLINGTON     LGT SNOW  15  11  83 N10       30.12R FOG     WCI   2
WRAY           CLOUDY    12  10  89 NW7       30.17R WCI   2
STERLING       CLOUDY    14   9  79 CALM      30.15R
HOLYOKE        NOT AVBL
FORT MORGAN    CLOUDY    13   9  83 W3        30.14R
$$

COZ086-089-092>099-041400-
...SOUTHEAST COLORADO...

CITY           SKY/WX    TMP DP  RH WIND       PRES   REMARKS
PUEBLO         LGT SNOW  21  19  92 E16       30.04R FOG     WCI   7
LA JUNTA       LGT SNOW  20  16  84 E17       30.07R FOG     WCI   5
LAMAR          CLOUDY    19  11  70 NE15      30.11R WCI   5
SPRINGFIELD      N/A     16  15  96 NE17      30.03R WCI   0
$$


USA.gov is the U.S. government's official web portal to all federal, state and local government web resources and services.